STARLINK-2169, 47752

Orbit data source: Space-Track

STARLINK-2169, 47752 is a payload satellite owned by SpaceX/Seattle (US) in LEO that was launched on Thu, 04 Mar 2021 UTC via an FALCON 9 launch vehicle from the Air Force Eastern Test Range (AFETR). Payload-class satellites include a variety of spacecraft equipped with specific instruments for various scientific and technological missions. These include communications satellites like Starlink; space stations such as the ISS; scientific satellites like the Hubble; Earth observation satellites from companies like Planet Labs, Umbra, and HawkEye 360; GPS; miniature CubeSats for education and research; and military/defense satellites.

Loading next visibility...
Identifier
47752, 2021-017AG
Orbit
LEO
Last TLE update
7 hours ago
Origin
Manufacturer
SpaceX/Seattle
Mission
Operational Commercial Communications
Bus & Motor
STARLINK, Unknown motor
Mass
260 kg wet, ~248 kg dry
Launch date (UTC)
2021-03-04 (4 years ago)
Launch vehicle
FALCON 9
Launch site
Air Force Eastern Test Range (AFETR)
Object type
Payload
Rocket body
Debris
Shape & HBR
Box + 1 Pan, 8.86 m
Radar Cross Section
13.562 m², Large (>1 m²)

Expand to show TLE details & history

TLE from 7 hours ago
0 STARLINK-2169
1 47752U 21017AG  25182.59480682  .00000697  00000-0  65638-4 0  9990
2 47752  53.0542 253.8271 0001021  87.0047 273.1058 15.06400508240005
Epoch: 2025-07-01T14:16Z
TLE epoch observation values (Epoch: 2025-07-01T14:16:31.309Z)
Latitude
-0.00007°
Longitude
119.80858°
Altitude
548.051 km
Speed
7.589 km/s
True Right ascension
16h 55m 18s
True Declination
0° 00' 00"
Sunlit
Object was in full shadow at epoch
Visualization orbit readout
Latitude
13.64575°
Longitude
-71.97956°
Altitude
547.156 km
Speed
7.591 km/s
Apparent Right ascension
01h 22m 47s
Apparent Declination
-18° 59' 21"
Sunlit
Object is in daylight
Visualization observer readout
Local Sidereal Time
09:02:06
Azimuth
270.347° WNW
Elevation
-30.884°
Doppler factor
1
Orbital elements
Apogee altitude
548.188 km
Perigee altitude
546.774 km
Semi-major axis
6,925.618 km
Eccentricity
0.0001
Inclination
53.0542°
RAAN
253.8271°
Arg. of periapsis
87.0047°
True anomaly
Unknown
Mean anomaly
273.1058°
Eccentric anomaly
Unknown
Mean motion
3.76578 °/min
Orbital period
95.6 mins
BSTAR
0.000065638
Loading maneuver chart data...
Loading SW <> Apogee altitude chart data...
Loading historical data...
Loading historical data...
Loading historical data...
Loading historical data...
Loading historical data...
Loading historical data...
Loading historical data...

STARLINK-2169 Visibility forecast

Observer location: undefined°, undefined°

Span
Click to sort rows by Start time (UTC) header in descending order
Start Az.
Max El. time (UTC)
Max El. Az.
Max El.
End time (UTC)
End Az.
5 mins2025-07-02 06:20:51.661Z172.135° S2025-07-02 06:23:51.661Z119.549° SE19.151°2025-07-02 06:25:51.661Z86.352° E
6 mins2025-07-02 07:59:51.661Z250.52° W2025-07-02 08:02:51.661Z336.96° NNW39.165°2025-07-02 08:05:51.661Z40.081° NE
5 mins2025-07-02 13:02:51.661Z349.825° N2025-07-02 13:04:51.661Z37.965° NE24.452°2025-07-02 13:07:51.661Z85.901° E
6 mins2025-07-02 14:41:51.661Z293.271° NW2025-07-02 14:43:51.661Z243.065° WSW38.437°2025-07-02 14:47:51.661Z148.299° SSE
|